Location: Cary
(35.7910°N, 78.7810°W)
Time: 11:52:25
(UTC-05:00)

N. Korean satellite - Pass Details

Date: 04 December 2021
Orbit: 447 x 491 km, 97.3° (Epoch: 25 January)

Event Time Altitude Azimuth Distance (km) Brightness Sun altitude
Rises 04:37:27 0° 31° (NNE) 2,453 10.4 -30.2°
Maximum altitude 04:42:15 16° 95° (E) 1,238 9.4 -29.2°
Drops below altitude 10° 04:44:26 10° 136° (SE) 1,568 9.7 -28.8°
Sets 04:47:01 0° 158° (SSE) 2,437 10.5 -28.3°
